When you browse on this site, cookies collect data to enhance your experience and personalize the content and advertising you see.
Visit our Privacy Policy to learn more. By continuing to use the site, you agree to this use of cookies and data.
  • In Czech Republic
  • List of Countries
  • For 7 days
  • Water Temperature
  • Weather Map
  • Weather Widgets
  • user-avatar
    Login

    Hourly Weather Durres

    Today, 6 April, Monday

    Time Temperature Precipitation Wind Pressure Humidity
    00:00 +10°C° 0 mm 7 mps 764 mmHg 65%
    01:00 +10°C° 0 mm 6 mps 764 mmHg 67%
    02:00 +10°C° 0 mm 6 mps 764 mmHg 68%
    03:00 +9°C° 0 mm 6 mps 764 mmHg 69%
    04:00 +9°C° 0 mm 7 mps 764 mmHg 70%
    05:00 +10°C° 0 mm 6 mps 764 mmHg 69%
    06:00 +10°C° 0 mm 6 mps 765 mmHg 68%
    07:00 +11°C° 0 mm 6 mps 765 mmHg 66%
    08:00 +13°C° 0 mm 5 mps 766 mmHg 60%
    09:00 +15°C° 0 mm 5 mps 766 mmHg 53%
    10:00 +17°C° 0 mm 5 mps 766 mmHg 46%
    11:00 +19°C° 0 mm 5 mps 766 mmHg 44%
    12:00 +19°C° 0 mm 5 mps 766 mmHg 42%
    13:00 +20°C° 0 mm 5 mps 766 mmHg 40%
    14:00 +20°C° 0 mm 5 mps 766 mmHg 42%
    15:00 +19°C° 0 mm 6 mps 766 mmHg 43%
    16:00 +19°C° 0 mm 6 mps 766 mmHg 45%
    17:00 +16°C° 0 mm 5 mps 766 mmHg 48%
    18:00 +15°C° 0 mm 5 mps 766 mmHg 51%
    19:00 +13°C° 0 mm 5 mps 767 mmHg 55%
    20:00 +12°C° 0 mm 5 mps 767 mmHg 55%
    21:00 +12°C° 0 mm 5 mps 768 mmHg 55%
    22:00 +10°C° 0 mm 5 mps 768 mmHg 55%
    23:00 +10°C° 0 mm 5 mps 768 mmHg 55%

    Tomorrow, 7 April, Tuesday

    Time Temperature Precipitation Wind Pressure Humidity
    00:00 +9°C° 0 mm 5 mps 768 mmHg 55%
    01:00 +9°C° 0 mm 5 mps 768 mmHg 55%
    02:00 +9°C° 0 mm 5 mps 768 mmHg 56%
    03:00 +8°C° 0 mm 5 mps 768 mmHg 56%
    04:00 +8°C° 0 mm 6 mps 768 mmHg 57%
    05:00 +9°C° 0 mm 6 mps 768 mmHg 57%
    06:00 +10°C° 0 mm 6 mps 768 mmHg 58%
    07:00 +11°C° 0 mm 6 mps 768 mmHg 58%
    08:00 +14°C° 0 mm 5 mps 768 mmHg 50%
    09:00 +16°C° 0 mm 5 mps 768 mmHg 41%
    10:00 +19°C° 0 mm 5 mps 768 mmHg 33%
    11:00 +19°C° 0 mm 5 mps 768 mmHg 31%
    12:00 +20°C° 0 mm 5 mps 768 mmHg 29%
    13:00 +21°C° 0 mm 6 mps 768 mmHg 27%
    14:00 +21°C° 0 mm 5 mps 768 mmHg 30%
    15:00 +20°C° 0 mm 5 mps 767 mmHg 32%
    16:00 +20°C° 0 mm 5 mps 767 mmHg 35%
    17:00 +17°C° 0 mm 5 mps 767 mmHg 39%
    18:00 +15°C° 0 mm 5 mps 768 mmHg 44%
    19:00 +13°C° 0 mm 5 mps 768 mmHg 48%
    20:00 +12°C° 0 mm 4 mps 768 mmHg 48%
    21:00 +11°C° 0 mm 4 mps 769 mmHg 48%
    22:00 +11°C° 0 mm 4 mps 769 mmHg 48%
    23:00 +10°C° 0 mm 4 mps 769 mmHg 49%

    Day after tomorrow, 8 April, Wednesday

    Time Temperature Precipitation Wind Pressure Humidity
    00:00 +10°C° 0 mm 4 mps 769 mmHg 50%
    01:00 +8°C° 0 mm 4 mps 768 mmHg 51%
    02:00 +8°C° 0 mm 4 mps 768 mmHg 52%
    03:00 +8°C° 0 mm 5 mps 768 mmHg 53%
    04:00 +7°C° 0 mm 5 mps 768 mmHg 54%
    05:00 +8°C° 0 mm 5 mps 768 mmHg 55%
    06:00 +9°C° 0 mm 5 mps 768 mmHg 55%
    07:00 +10°C° 0 mm 5 mps 768 mmHg 56%
    08:00 +13°C° 0 mm 5 mps 767 mmHg 50%
    09:00 +15°C° 0 mm 5 mps 767 mmHg 44%
    10:00 +18°C° 0 mm 4 mps 767 mmHg 39%
    11:00 +19°C° 0 mm 5 mps 767 mmHg 37%
    12:00 +19°C° 0 mm 5 mps 766 mmHg 36%
    13:00 +20°C° 0 mm 5 mps 766 mmHg 35%
    14:00 +20°C° 0 mm 6 mps 765 mmHg 38%
    15:00 +18°C° 0 mm 7 mps 765 mmHg 41%
    16:00 +18°C° 0 mm 8 mps 765 mmHg 45%
    17:00 +16°C° 0 mm 8 mps 765 mmHg 52%
    18:00 +13°C° 0 mm 8 mps 765 mmHg 60%
    19:00 +11°C° 0 mm 8 mps 765 mmHg 67%
    20:00 +11°C° 0 mm 7 mps 765 mmHg 67%
    21:00 +10°C° 0 mm 7 mps 765 mmHg 66%
    22:00 +10°C° 0 mm 6 mps 765 mmHg 66%
    23:00 +9°C° 0 mm 6 mps 765 mmHg 63%

    9 April, Thursday

    Time Temperature Precipitation Wind Pressure Humidity
    00:00 +9°C° 0 mm 5 mps 765 mmHg 60%
    01:00 +10°C° 0 mm 4 mps 765 mmHg 57%
    02:00 +8°C° 0 mm 4 mps 765 mmHg 57%
    03:00 +9°C° 0 mm 3 mps 765 mmHg 56%
    04:00 +9°C° 0 mm 3 mps 765 mmHg 55%
    05:00 +10°C° 0 mm 3 mps 764 mmHg 55%
    06:00 +11°C° 0 mm 3 mps 764 mmHg 55%
    07:00 +12°C° 0 mm 3 mps 764 mmHg 55%
    08:00 +14°C° 0 mm 3 mps 764 mmHg 50%
    09:00 +16°C° 0 mm 3 mps 764 mmHg 46%
    10:00 +18°C° 0 mm 3 mps 764 mmHg 42%
    11:00 +19°C° 0 mm 4 mps 763 mmHg 43%
    12:00 +19°C° 0 mm 5 mps 763 mmHg 44%
    13:00 +20°C° 0 mm 5 mps 763 mmHg 44%
    14:00 +19°C° 0 mm 6 mps 762 mmHg 48%
    15:00 +17°C° 0 mm 6 mps 762 mmHg 52%
    16:00 +17°C° 0 mm 7 mps 762 mmHg 56%
    17:00 +15°C° 0 mm 6 mps 762 mmHg 62%
    18:00 +13°C° 0 mm 6 mps 762 mmHg 69%
    19:00 +10°C° 0 mm 5 mps 762 mmHg 76%
    20:00 +11°C° 0 mm 4 mps 762 mmHg 76%
    21:00 +11°C° 0 mm 4 mps 763 mmHg 77%
    22:00 +10°C° 0 mm 3 mps 763 mmHg 77%
    23:00 +10°C° 0 mm 3 mps 763 mmHg 78%

    10 April, Friday

    Time Temperature Precipitation Wind Pressure Humidity
    00:00 +10°C° 0 mm 3 mps 763 mmHg 79%
    01:00 +10°C° 0 mm 3 mps 763 mmHg 80%
    02:00 +10°C° 0 mm 3 mps 763 mmHg 80%
    03:00 +9°C° 0 mm 3 mps 763 mmHg 81%
    04:00 +9°C° 0 mm 3 mps 762 mmHg 82%
    05:00 +10°C° 0 mm 3 mps 763 mmHg 78%
    06:00 +13°C° 0 mm 2 mps 763 mmHg 73%
    07:00 +14°C° 0 mm 2 mps 763 mmHg 69%
    08:00 +15°C° 0 mm 2 mps 763 mmHg 64%
    09:00 +17°C° 0 mm 2 mps 763 mmHg 59%
    10:00 +18°C° 0 mm 3 mps 762 mmHg 54%
    11:00 +19°C° 0 mm 3 mps 762 mmHg 52%
    12:00 +20°C° 0 mm 4 mps 762 mmHg 50%
    13:00 +21°C° 0 mm 5 mps 762 mmHg 49%
    14:00 +21°C° 0 mm 6 mps 762 mmHg 52%
    15:00 +20°C° 0 mm 6 mps 762 mmHg 56%
    16:00 +19°C° 0 mm 6 mps 761 mmHg 59%
    17:00 +16°C° 0 mm 6 mps 762 mmHg 65%
    18:00 +15°C° 0 mm 5 mps 762 mmHg 71%
    19:00 +13°C° 0 mm 5 mps 762 mmHg 77%
    20:00 +12°C° 0 mm 4 mps 762 mmHg 78%
    21:00 +12°C° 0 mm 3 mps 763 mmHg 79%
    22:00 +13°C° 0 mm 2 mps 763 mmHg 80%
    23:00 +13°C° 0 mm 2 mps 763 mmHg 81%

    11 April, Saturday

    Time Temperature Precipitation Wind Pressure Humidity
    00:00 +12°C° 0 mm 2 mps 763 mmHg 82%
    01:00 +12°C° 0 mm 2 mps 763 mmHg 83%
    02:00 +12°C° 0 mm 2 mps 763 mmHg 81%
    03:00 +12°C° 0 mm 2 mps 764 mmHg 80%
    04:00 +12°C° 0 mm 2 mps 764 mmHg 78%
    05:00 +13°C° 0 mm 2 mps 764 mmHg 74%
    06:00 +14°C° 0 mm 2 mps 764 mmHg 69%
    07:00 +16°C° 0 mm 1 mps 764 mmHg 65%
    08:00 +18°C° 0 mm 1 mps 764 mmHg 59%
    09:00 +20°C° 0 mm 1 mps 764 mmHg 54%
    10:00 +22°C° 0 mm 1 mps 764 mmHg 49%
    11:00 +23°C° 0 mm 2 mps 764 mmHg 49%
    12:00 +23°C° 0 mm 2 mps 764 mmHg 50%
    13:00 +24°C° 0 mm 3 mps 764 mmHg 51%
    14:00 +22°C° 0 mm 3 mps 764 mmHg 53%
    15:00 +21°C° 0 mm 3 mps 764 mmHg 55%
    16:00 +20°C° 0 mm 4 mps 763 mmHg 57%
    17:00 +18°C° 0 mm 3 mps 763 mmHg 64%
    18:00 +16°C° 0 mm 2 mps 764 mmHg 71%
    19:00 +14°C° 0 mm 1 mps 764 mmHg 78%
    20:00 +14°C° 0 mm 1 mps 764 mmHg 79%
    21:00 +14°C° 0 mm 1 mps 764 mmHg 79%
    22:00 +14°C° 0 mm 1 mps 765 mmHg 80%
    23:00 +13°C° 0 mm 1 mps 765 mmHg 80%
    Show more